TimeMST,TemperatureF,Dew PointF,Humidity,Sea Level PressureIn,VisibilityMPH,Wind Direction,Wind SpeedMPH,Gust SpeedMPH,PrecipitationIn,Events,Conditions,WindDirDegrees,DateUTC
12:53 AM,35.1,9.0,34,29.99,10.0,ENE,8.1,-,N/A,,Clear,70,2013-01-24 07:53:00
1:53 AM,34.0,10.0,37,29.98,10.0,Calm,Calm,-,N/A,,Clear,0,2013-01-24 08:53:00
2:53 AM,39.9,10.0,29,29.96,10.0,West,8.1,-,N/A,,Clear,280,2013-01-24 09:53:00
3:53 AM,39.9,10.9,31,29.95,10.0,WNW,11.5,-,N/A,,Clear,290,2013-01-24 10:53:00
4:53 AM,37.9,10.0,32,29.98,10.0,Calm,Calm,-,N/A,,Clear,0,2013-01-24 11:53:00
5:53 AM,43.0,12.0,28,29.97,10.0,WNW,9.2,-,N/A,,Clear,290,2013-01-24 12:53:00
6:53 AM,46.9,12.9,25,29.97,10.0,WNW,12.7,20.7,N/A,,Partly Cloudy,290,2013-01-24 13:53:00
7:53 AM,48.0,14.0,26,29.96,10.0,NW,11.5,-,N/A,,Clear,320,2013-01-24 14:53:00
8:53 AM,45.0,15.1,30,29.97,10.0,North,4.6,-,N/A,,Clear,360,2013-01-24 15:53:00
9:53 AM,54.0,24.1,31,29.94,10.0,West,27.6,46.0,N/A,,Clear,280,2013-01-24 16:53:00
10:53 AM,55.0,25.0,31,29.94,10.0,West,26.5,35.7,N/A,,Clear,270,2013-01-24 17:53:00
11:53 AM,55.9,26.1,32,29.89,10.0,West,33.4,48.3,N/A,,Clear,280,2013-01-24 18:53:00
12:53 PM,57.9,26.1,30,29.86,10.0,West,35.7,50.6,N/A,,Clear,280,2013-01-24 19:53:00
1:53 PM,55.0,27.0,34,29.88,10.0,West,33.4,47.2,N/A,,Clear,280,2013-01-24 20:53:00
2:53 PM,53.1,27.0,37,29.90,10.0,West,31.1,44.9,N/A,,Partly Cloudy,280,2013-01-24 21:53:00
3:53 PM,51.1,27.0,39,29.91,10.0,West,32.2,44.9,N/A,,Partly Cloudy,280,2013-01-24 22:53:00
4:53 PM,48.9,28.0,44,29.96,10.0,West,25.3,34.5,N/A,,Partly Cloudy,280,2013-01-24 23:53:00
5:53 PM,48.0,28.0,46,30.00,10.0,West,19.6,-,N/A,,Partly Cloudy,280,2013-01-25 00:53:00
6:53 PM,39.9,27.0,60,30.04,10.0,West,4.6,-,N/A,,Clear,280,2013-01-25 01:53:00
7:53 PM,35.1,25.0,67,30.08,10.0,WNW,6.9,-,N/A,,Clear,300,2013-01-25 02:53:00
8:53 PM,34.0,21.9,61,30.11,10.0,NNW,3.5,-,N/A,,Clear,330,2013-01-25 03:53:00
9:53 PM,30.0,21.9,72,30.10,10.0,WNW,6.9,-,N/A,,Clear,290,2013-01-25 04:53:00
10:53 PM,30.9,24.1,76,30.11,10.0,NNW,6.9,-,N/A,,Clear,330,2013-01-25 05:53:00
11:53 PM,30.0,25.0,82,30.11,10.0,WNW,5.8,-,N/A,,Clear,300,2013-01-25 06:53:00